Location: Killam
(52.7910°N, 111.8608°W)
Time: 18:36:00
(UTC+00:00)

ITUPSAT 1 - Visible Passes

Search period start: 07 March 2026 00:00
Search period end: 17 March 2026 00:00
Orbit: 687 x 697 km, 98.4° (Epoch: 7 March)

Date Brightness Start Highest point End Pass type
(mag) Time Alt. Az. Time Alt. Az. Time Alt. Az.
8 Mar ? 07:59:21 10° N 07:59:37 11° N 07:59:37 11° N visible
9 Mar ? 08:39:31 10° N 08:39:47 11° NNW 08:39:47 11° NNW visible
10 Mar ? 07:40:52 10° N 07:41:17 12° N 07:41:17 12° N visible
11 Mar ? 08:20:51 10° N 08:21:27 13° N 08:21:27 13° N visible
12 Mar ? 07:22:26 10° NNE 07:22:56 13° NNE 07:22:56 13° NNE visible
12 Mar ? 09:01:17 10° NNW 09:01:36 11° NNW 09:01:36 11° NNW visible
13 Mar ? 08:02:15 10° N 08:03:05 15° N 08:03:05 15° N visible
14 Mar ? 07:04:04 10° NNE 07:04:34 13° NNE 07:04:34 13° NNE visible
14 Mar ? 08:42:25 10° N 08:43:14 13° NNW 08:43:14 13° NNW visible
15 Mar ? 07:43:44 10° N 07:44:43 16° N 07:44:43 16° N visible
16 Mar ? 06:45:45 10° NNE 06:46:11 12° NNE 06:46:11 12° NNE visible
16 Mar ? 08:23:43 10° N 08:24:52 16° NNW 08:24:52 16° NNW visible
